Location: Burbank
(38.7788°N, 114.0429°W)
Time: 00:39:27
(UTC+00:00)

Explorer 7 - Pass Details

Date: 17 May 2026
Orbit: 426 x 534 km, 50.2° (Epoch: 10 June)

Event Time Altitude Azimuth Distance (km) Brightness Sun altitude
Exits shadow 10:09:21 15° 128° (SE) 1,289 8.7 -21.2°
Drops below altitude 10° 10:11:16 10° 95° (E) 1,563 9.6 -21.0°
Sets 10:14:08 0° 70° (ENE) 2,463 11.2 -20.6°
